Palmdale, CA

3:11 PM PST on February 24, 2017 (GMT -0800)
Palmdale Af Plant 42

Weather History for KPMD - December, 2013

Change the Weather History Date:

Tuesday, December 10, 2013

  Actual Average Record
Temperature  
Mean Temperature 33 °F 45 °F  
Max Temperature 46 °F 59 °F 76 °F (1975)
Min Temperature 19 °F 31 °F 15 °F (1956)
Degree Days  
Heating Degree Days 32 20  
Month to date heating degree days 236 196  
Since 1 July heating degree days 749 723  
Cooling Degree Days 0 0  
Month to date cooling degree days 0 0  
Year to date cooling degree days 2126 1815  
Moisture  
Dew Point 4 °F    
Average Humidity 34    
Maximum Humidity 51    
Minimum Humidity 16    
Precipitation  
Precipitation 0.00 in 0.01 in 0.70 in (1943)
Month to date precipitation T 0.14  
Year to date precipitation 2.93 7.29  
Since 1 July precipitation 2.07  
Snow  
Snow 0.00 in - T in (1972)
Month to date snowfall 0.0  
Since 1 July snowfall 0.0  
Snow Depth 0.00 in    
Sea Level Pressure  
Sea Level Pressure 30.35 in    
Wind  
Wind Speed 3 mph (West)    
Max Wind Speed 9 mph    
Max Gust Speed 9 mph    
Visibility 10 miles    
Events      
T = Trace of Precipitation, MM = Missing Value Source: NWS Daily Summary

Daily Weather History Graph

Daily Weather History Graph

Search for Another Location

Airport or City:

Trip Planner

Search our weather history database for the weather conditions in past years. The results will help you decide how hot, cold, wet, or windy it might be!

Date:

Astronomy

Dec. 10, 2013 Rise Set
Actual Time 6:48 AM PST 4:41 PM PST
Civil Twilight 6:20 AM PST 5:09 PM PST
Nautical Twilight 5:49 AM PST 5:41 PM PST
Astronomical Twilight 5:18 AM PST 6:11 PM PST
Moon 12:33 PM PST (12/10) 12:25 AM PST (12/10)
Length of Visible Light 10h 48m
Length of Day
9h 53m
Waxing Gibbous, 63% of the Moon is Illuminated
Dec 10
Waxing Gibbous
Dec 17
Full
Dec 25
Last Quarter
Jan 1
New
Jan 7
First Quarter

Hourly Weather History & Observations

Time (PST) Temp. Windchill Dew Point Humidity Pressure Visibility Wind Dir Wind Speed Gust Speed Precip Events Conditions
12:53 AM 25.0 °F 19.3 °F -0.0 °F 34% 30.47 in 10.0 mi North 4.6 mph - N/A   Clear
1:53 AM 26.1 °F - -0.0 °F 32% 30.45 in 10.0 mi Calm Calm - N/A   Clear
2:53 AM 25.0 °F - -0.0 °F 34% 30.43 in 10.0 mi Calm Calm - N/A   Clear
3:53 AM 21.9 °F - 3.9 °F 46% 30.43 in 10.0 mi Calm Calm - N/A   Clear
4:53 AM 19.9 °F 13.4 °F 5.0 °F 52% 30.43 in 10.0 mi NW 4.6 mph - N/A   Clear
5:53 AM 21.0 °F 16.2 °F 3.0 °F 46% 30.43 in 10.0 mi NW 3.5 mph - N/A   Clear
6:53 AM 21.0 °F 16.2 °F 3.0 °F 46% 30.44 in 10.0 mi West 3.5 mph - N/A   Clear
7:53 AM 24.1 °F 18.2 °F 6.1 °F 46% 30.43 in 10.0 mi WNW 4.6 mph - N/A   Clear
8:53 AM 30.0 °F 26.5 °F -0.0 °F 28% 30.43 in 10.0 mi WNW 3.5 mph - N/A   Clear
9:53 AM 28.9 °F - 3.0 °F 33% 30.43 in 10.0 mi Calm Calm - N/A   Clear
10:53 AM 30.9 °F - -0.0 °F 27% 30.41 in 10.0 mi Calm Calm - N/A   Clear
11:53 AM 36.0 °F - -0.0 °F 22% 30.36 in 10.0 mi Calm Calm - N/A   Clear
12:53 PM 41.0 °F - -0.0 °F 18% 30.31 in 10.0 mi Calm Calm - N/A   Clear
1:53 PM 43.0 °F - -0.0 °F 17% 30.27 in 10.0 mi Calm Calm - N/A   Clear
2:53 PM 45.0 °F 43.5 °F 1.0 °F 16% 30.26 in 10.0 mi NNW 3.5 mph - N/A   Clear
3:53 PM 45.0 °F 43.5 °F 1.0 °F 16% 30.25 in 10.0 mi NNW 3.5 mph - N/A   Clear
4:53 PM 42.1 °F 39.2 °F 1.9 °F 19% 30.25 in 10.0 mi North 4.6 mph - N/A   Clear
5:53 PM 37.0 °F 34.5 °F 5.0 °F 26% 30.27 in 10.0 mi SW 3.5 mph - N/A   Clear
6:53 PM 30.9 °F 25.2 °F 9.0 °F 40% 30.29 in 10.0 mi SSW 5.8 mph - N/A   Clear
7:53 PM 28.0 °F 20.8 °F 10.9 °F 49% 30.30 in 10.0 mi SSW 6.9 mph - N/A   Clear
8:53 PM 28.9 °F 21.1 °F 10.9 °F 47% 30.29 in 10.0 mi SSW 8.1 mph - N/A   Clear
9:53 PM 28.0 °F 21.7 °F 9.0 °F 45% 30.30 in 10.0 mi SSW 5.8 mph - N/A   Clear
10:53 PM 27.0 °F 19.5 °F 10.9 °F 51% 30.30 in 10.0 mi SSW 6.9 mph - N/A   Clear
11:53 PM 26.1 °F - 10.9 °F 53% 30.29 in 10.0 mi Calm Calm - N/A   Clear